User: anonymous   Login
Location: Newark
(37.8444°N, 127.0614°E)
Time: 16:29:20
(UTC+00:00)
Language:

XW-2F - Orbit

View from above orbital plane
View from above orbital plane
View from above satellite
View from above satellite

Ground track
Ground track

The orbit data is extracted from the following two-line orbital elements,

1 40910U 15049M   21019.49543536  .00001015  00000-0  52403-4 0  9990
2 40910  97.4713  26.4074 0013775 335.5019 184.3897 15.18526815295119
Epoch (UTC): 19 January 2021 11:53:25
Eccentricity: 0.0013775
inclination: 97.4713°
perigee height: 501 km
apogee height: 520 km
right ascension of ascending node: 26.4074°
argument of perigee: 335.5019°
revolutions per day: 15.18526815
mean anomaly at epoch: 184.3897°
orbit number at epoch: 29511

The dashed part of the orbit path shows where the satellite is in the earth's shadow,  

DLR